[[{"header":{"parameterUnit":"m.s-1","parameterCategory":1,"la1":30.2991,"la2":30.254,"lo1":-89.0895,"lo2":-89.0444,"dy":0.0017,"dx":0.0017,"nx":28,"ny":28,"refTime":"2024-07-19T21:00:00:Z","depth":0,"parameterNumber":2,"parameterNumberName":"U-component_of_WINDS"},"data":[0,0,0,0,0,0,0,0,0,0,0,0,0,0,0,0,0,0,0,0,0,0,0,0,0,0,0,0,0,0,0,0,0,0,0,0,0,0,0,0,0,0,0,0,0,0,0,0,0,0,0,0,0,0,0,0,0,0,0.0252,0.0251,0,0.0238,0.0238,0.0238,0.0236,0.0236,0.0236,0.0236,0.0221,0.0221,0.022,0,0,0,0,0,0,0,0,0,0,0,0,0,0.0273,0.0273,0.0252,0.0251,0.0251,0.0238,0.0238,0.0238,0.0236,0.0236,0.0236,0.0236,0.0221,0.0221,0.022,0,0,0,0,0,0,0,0,0,0,0,0,0,0.0262,0.0273,0.0252,0.0249,0.0248,0.0238,0.0238,0.0238,0.0236,0.0236,0.0236,0.0236,0.0222,0.0221,0.022,0.0212,0,0,0.0218,0.0217,0,0,0,0,0,0,0,0,0.0263,0.0262,0.0249,0.0249,0.0248,0.0239,0.024,0.0229,0.0236,0.024,0.0236,0.0236,0.0227,0.0226,0.0223,0.0211,0.0211,0.0218,0.0217,0.0217,0.0217,0,0,0,0,0,0,0,0.0264,0.0262,0.0246,0.0249,0.0248,0.0247,0.0246,0.0238,0.0233,0.024,0.024,0.0238,0.0227,0.0223,0.0222,0.021,0.0218,0.0217,0.0217,0.0216,0.019,0.019,0,0,0,0,0,0,0.0265,0.0263,0.0247,0.0246,0.0256,0.0247,0.0245,0.0242,0.0233,0.0232,0.0238,0.0238,0.0225,0.0223,0.0222,0.0211,0.0217,0.0216,0.0216,0.0191,0.019,0.019,0,0,0,0,0,0,0.0266,0.0264,0.0247,0.0254,0.0252,0.0246,0.0242,0.0241,0.0238,0.0231,0.023,0.0236,0.0225,0.0223,0.0214,0.0211,0.0216,0.0215,0.0191,0.019,0.019,0.019,0,0,0,0,0,0,0.0266,0.0264,0.0261,0.0254,0.0252,0.024,0.0242,0.0241,0.0237,0.0237,0.0229,0.0228,0.0225,0.0215,0.0214,0.021,0.0215,0.0191,0.0191,0.019,0.019,0.0189,0.0189,0,0,0,0,0,0.0267,0.0262,0.0261,0.0259,0.0248,0.024,0.0239,0.0235,0.0237,0.0234,0.0229,0.0228,0.0211,0.0215,0.0212,0.0208,0.0191,0.0191,0.019,0.019,0.019,0.0189,0,0,0,0,0,0,0.0268,0.0261,0.026,0.0252,0.0247,0.024,0.0236,0.0235,0.0229,0.0229,0.0224,0.0223,0.0214,0.021,0.0214,0.0199,0.0201,0.02,0.0202,0.0201,0.0201,0.0202,0.0214,0,0,0,0,0,0.0268,0.0262,0.0256,0.0249,0.0247,0.0242,0.0238,0.0236,0.023,0.0228,0.0223,0.0217,0.021,0.0205,0.0199,0.0189,0.0187,0.0185,0.0185,0.0184,0.0183,0.0177,0.0176,0.0188,0.0188,0.0188,0,0,0.0266,0.0262,0.0258,0.025,0.0245,0.0239,0.024,0.0234,0.0229,0.0227,0.0218,0.0214,0.0207,0.0198,0.0193,0.0194,0.018,0.0184,0.0183,0.0183,0.0177,0.0176,0.0175,0.0188,0.0188,0.0188,0,0,0.0261,0.0257,0.0251,0.0246,0.024,0.0236,0.0235,0.0227,0.0225,0.0216,0.0214,0.0208,0.0197,0.0191,0.0187,0.0179,0.0177,0.0176,0.0173,0.0167,0.0166,0.0166,0.0162,0.0161,0.0176,0.0176,0.0176,0,0.026,0.0251,0.0248,0.0241,0.0237,0.0235,0.0228,0.0224,0.0215,0.0212,0.0213,0.0198,0.0193,0.0183,0.018,0.0177,0.0175,0.0177,0.0167,0.0166,0.0165,0.0161,0.016,0.0176,0.0176,0.0176,0.0176,0,0.025,0.0244,0.024,0.0231,0.0227,0.022,0.0215,0.0211,0.0209,0.0205,0.0196,0.019,0.0181,0.0178,0.0177,0.0167,0.0168,0.0168,0.017,0.0164,0.016,0.0159,0.0175,0.0175,0.0175,0.0175,0,0,0.0245,0.0235,0.0233,0.0229,0.0221,0.0216,0.0209,0.0201,0.0197,0.0191,0.0184,0.0174,0.0174,0.0169,0.0167,0.0161,0.0154,0.0162,0.0162,0.016,0.0142,0.0142,0.014,0.0153,0.0153,0.0153,0.0143,0,0.0238,0.0226,0.0223,0.0212,0.0206,0.0203,0.0197,0.0191,0.0187,0.0181,0.0176,0.0169,0.017,0.0167,0.0161,0.0156,0.015,0.0157,0.0146,0.0146,0.0148,0.0139,0.0138,0.0129,0.0141,0.0141,0.0141,0,0.0229,0.0222,0.0211,0.0203,0.0201,0.0195,0.0187,0.0181,0.0174,0.0171,0.0166,0.0163,0.0155,0.0157,0.0145,0.015,0.0145,0.0142,0.0141,0.014,0.0143,0.0137,0.0126,0.0125,0.0139,0.0139,0.0139,0,0.0225,0.0214,0.0206,0.0203,0.0193,0.0189,0.0185,0.0178,0.0174,0.0166,0.0163,0.0155,0.015,0.0144,0.0139,0.0141,0.0127,0.0129,0.0124,0.0124,0.0121,0.0121,0.0109,0.0118,0.0118,0.0118,0.0118,0,0.0218,0.0211,0.0204,0.0199,0.0191,0.0187,0.0179,0.0175,0.0168,0.0162,0.0159,0.0153,0.0147,0.0139,0.0135,0.0125,0.0123,0.012,0.0119,0.012,0.0121,0.0117,0.0118,0.0118,0.0118,0.0118,0.0118,0,0.0213,0.0209,0.0199,0.0191,0.0189,0.0183,0.0176,0.0171,0.0166,0.0158,0.0156,0.0149,0.014,0.0134,0.0123,0.012,0.0109,0.0108,0.0112,0.0111,0.0106,0.0106,0.0091,0.0089,0.01,0.01,0.01,0,0.0209,0.0203,0.0195,0.019,0.0186,0.0179,0.0174,0.0169,0.0164,0.0155,0.015,0.0141,0.0134,0.0119,0.0113,0.0104,0.0103,0.0098,0.0101,0.0102,0.0102,0.0102,0.0101,0.0097,0.0097,0.0097,0.0097,0,0.0201,0.0198,0.0192,0.0184,0.0178,0.0172,0.0165,0.0161,0.0155,0.0149,0.0141,0.0135,0.0123,0.0114,0.0104,0.0099,0.0097,0.0096,0.0094,0.0095,0.0097,0.0096,0.011,0.0097,0.0097,0.0097,0.0097,0.0097,0.0195,0.019,0.0183,0.0176,0.017,0.0164,0.0158,0.0153,0.0146,0.0136,0.0133,0.0124,0.0116,0.0102,0.0097,0.0089,0.0089,0.0087,0.0086,0.0086,0.0085,0.0099,0.0087,0.0087,0.0087,0.0087,0.0087,0,0.0187,0.0182,0.0175,0.0166,0.016,0.0159,0.0151,0.0146,0.0138,0.013,0.0123,0.0112,0.0103,0.0095,0.0086,0.008,0.0079,0.0078,0.0078,0.0077,0.0086,0.0088,0.0079,0.0079,0.0079,0.0079,0.0079,0.0079,0.0182,0.0173,0.017,0.0158,0.0153,0.0144,0.0139,0.0133,0.0127,0.0116,0.0108,0.0103,0.0096,0.0085,0.0076,0.0074,0.007,0.0069,0.0067,0.0075,0.0076,0.0077,0.0079,0.0069,0.0069,0.0059,0.0059,0.0059]},{"header":{"parameterUnit":"m.s-1","parameterCategory":1,"la1":30.2991,"la2":30.254,"lo1":-89.0895,"lo2":-89.0444,"dy":0.0017,"dx":0.0017,"nx":28,"ny":28,"refTime":"2024-07-19T21:00:00:Z","depth":0,"parameterNumber":3,"parameterNumberName":"V-component_of_WINDS"},"data":[0,0,0,0,0,0,0,0,0,0,0,0,0,0,0,0,0,0,0,0,0,0,0,0,0,0,0,0,0,0,0,0,0,0,0,0,0,0,0,0,0,0,0,0,0,0,0,0,0,0,0,0,0,0,0,0,0,0,3.5826,3.5826,0,3.5796,3.5796,3.5796,3.5811,3.5812,3.5812,3.5813,3.5778,3.5776,3.5775,0,0,0,0,0,0,0,0,0,0,0,0,0,3.5893,3.5892,3.5826,3.5826,3.5826,3.5796,3.5796,3.5795,3.5811,3.5812,3.5813,3.5813,3.5779,3.5777,3.5775,0,0,0,0,0,0,0,0,0,0,0,0,0,3.5864,3.5891,3.5826,3.583,3.583,3.5796,3.5796,3.5795,3.581,3.5812,3.5813,3.5814,3.5779,3.5777,3.5774,3.5735,0,0,3.5767,3.5766,0,0,0,0,0,0,0,0,3.5865,3.5861,3.583,3.5829,3.5829,3.5809,3.5807,3.5775,3.581,3.5818,3.5813,3.5815,3.5787,3.5784,3.5775,3.5733,3.5731,3.5766,3.5765,3.5764,3.5763,0,0,0,0,0,0,0,3.5867,3.5862,3.5814,3.5829,3.5829,3.5831,3.5829,3.5801,3.5796,3.5817,3.5818,3.5815,3.5787,3.5778,3.5775,3.5731,3.5766,3.5764,3.5763,3.5762,3.5654,3.5652,0,0,0,0,0,0,3.587,3.5864,3.5815,3.5813,3.5851,3.5829,3.5826,3.5814,3.5796,3.5795,3.5814,3.5815,3.5782,3.5778,3.5774,3.5725,3.5764,3.5761,3.576,3.5655,3.5653,3.5652,0,0,0,0,0,0,3.5871,3.5865,3.5816,3.5839,3.5833,3.5827,3.5813,3.5813,3.5803,3.5794,3.5792,3.5805,3.5782,3.5777,3.5744,3.5724,3.576,3.5758,3.5657,3.5655,3.5653,3.5628,0,0,0,0,0,0,3.5873,3.5866,3.5851,3.5839,3.5832,3.5789,3.5812,3.5811,3.58,3.5802,3.5785,3.5784,3.5783,3.5748,3.5742,3.5721,3.5756,3.5658,3.5656,3.5653,3.5631,3.5626,3.5621,0,0,0,0,0,3.5875,3.5845,3.585,3.5844,3.5814,3.5788,3.5783,3.5784,3.5798,3.5783,3.5776,3.5784,3.5728,3.5745,3.5738,3.5716,3.566,3.5656,3.5653,3.5633,3.5627,3.5621,0,0,0,0,0,0,3.5853,3.5843,3.5849,3.5814,3.5802,3.579,3.5771,3.5778,3.576,3.5762,3.5763,3.5759,3.5725,3.5718,3.5736,3.5676,3.5696,3.5691,3.5682,3.5676,3.5672,3.5673,3.5754,0,0,0,0,0,3.5845,3.5826,3.5817,3.5787,3.5781,3.5777,3.5766,3.5767,3.5754,3.5748,3.574,3.5725,3.5704,3.569,3.567,3.5631,3.5626,3.5612,3.5607,3.5604,3.5599,3.5576,3.557,3.5642,3.5642,3.5642,0,0,3.5826,3.5818,3.5806,3.5782,3.5773,3.5752,3.5772,3.5749,3.5733,3.5744,3.5713,3.5706,3.569,3.5653,3.5637,3.5646,3.5578,3.56,3.5597,3.5594,3.5572,3.5566,3.556,3.564,3.564,3.5641,0,0,3.5781,3.5774,3.5748,3.5738,3.5725,3.5722,3.5716,3.5704,3.57,3.5669,3.5677,3.5657,3.5621,3.5609,3.5599,3.555,3.5556,3.5544,3.5518,3.5496,3.549,3.5485,3.5466,3.5459,3.5539,3.5539,3.5539,0,3.5759,3.5729,3.5733,3.5709,3.5698,3.571,3.5682,3.5672,3.5652,3.5643,3.5655,3.561,3.56,3.556,3.5548,3.554,3.5531,3.5544,3.5491,3.5486,3.5481,3.5463,3.5456,3.5538,3.5538,3.5538,3.5538,0,3.5702,3.5681,3.5661,3.5643,3.5629,3.5604,3.5603,3.5589,3.5592,3.5588,3.5556,3.5545,3.5523,3.5514,3.5516,3.5474,3.548,3.5491,3.551,3.5472,3.5455,3.5449,3.5536,3.5536,3.5537,3.5537,0,0,3.5641,3.5626,3.5618,3.561,3.5596,3.5579,3.5554,3.5533,3.5521,3.5507,3.5484,3.5454,3.5464,3.5452,3.5453,3.5434,3.5395,3.5447,3.5447,3.5437,3.5346,3.5337,3.5329,3.54,3.5399,3.5398,3.5347,0,3.5593,3.555,3.5554,3.5512,3.5492,3.5503,3.5481,3.5469,3.5465,3.5446,3.5442,3.542,3.5436,3.5428,3.541,3.5404,3.5377,3.5408,3.5377,3.5376,3.5379,3.532,3.531,3.5263,3.5341,3.534,3.5339,0,3.5532,3.5517,3.5474,3.5464,3.5455,3.5435,3.5417,3.5399,3.5386,3.5384,3.5371,3.5376,3.5349,3.5371,3.5333,3.5354,3.5342,3.5337,3.5335,3.533,3.5354,3.5313,3.5248,3.5241,3.5329,3.533,3.533,0,3.549,3.5459,3.5429,3.5422,3.5409,3.5394,3.5388,3.5376,3.5364,3.5348,3.5339,3.532,3.5308,3.5293,3.5291,3.5307,3.5253,3.5274,3.5249,3.5249,3.5235,3.5236,3.5166,3.5231,3.5231,3.5231,3.5231,0,3.5436,3.5408,3.541,3.5391,3.5361,3.5365,3.5334,3.5329,3.5319,3.5298,3.5307,3.5288,3.5288,3.5268,3.5267,3.5235,3.523,3.5227,3.5227,3.5225,3.5225,3.5216,3.5218,3.5229,3.5229,3.523,3.523,0,3.5382,3.5382,3.535,3.5341,3.5338,3.5316,3.5308,3.5289,3.5287,3.5261,3.5255,3.5251,3.5228,3.5226,3.5198,3.5198,3.5159,3.5163,3.5163,3.5163,3.5138,3.5139,3.5058,3.5047,3.512,3.512,3.5119,0,3.5346,3.5326,3.5315,3.5303,3.5296,3.5276,3.5264,3.5267,3.5254,3.5237,3.5221,3.5199,3.5181,3.5143,3.5137,3.5116,3.5118,3.5091,3.5115,3.5114,3.5116,3.5116,3.5113,3.5086,3.5085,3.5084,3.5084,0,3.5283,3.5284,3.5267,3.525,3.5235,3.5221,3.5209,3.5198,3.5199,3.5184,3.5161,3.5147,3.512,3.5097,3.5077,3.5069,3.5076,3.5077,3.507,3.5067,3.5067,3.5065,3.5149,3.5078,3.5079,3.5079,3.5079,3.508,3.5236,3.5218,3.5208,3.5188,3.5179,3.5167,3.5149,3.5146,3.5127,3.5106,3.5109,3.5083,3.507,3.5044,3.5034,3.5013,3.5022,3.5012,3.5009,3.5006,3.5003,3.5073,3.501,3.501,3.501,3.501,3.501,0,3.5171,3.5165,3.5147,3.513,3.5114,3.5125,3.5111,3.5097,3.5074,3.5062,3.5045,3.5019,3.4997,3.499,3.4968,3.4953,3.4955,3.4947,3.4947,3.4945,3.4997,3.5004,3.4945,3.4945,3.4945,3.4945,3.4945,3.4945,3.5135,3.5105,3.5106,3.5071,3.5065,3.5041,3.5032,3.5021,3.5011,3.4982,3.4964,3.496,3.495,3.4928,3.4908,3.4906,3.4897,3.4887,3.4886,3.4935,3.4941,3.4947,3.4954,3.4885,3.4885,3.4836,3.4835,3.4835]}]]